Content
SEND FEEDBACK

Daily
Averages
Monthly
Summary
Italy

BARI, ITALY


Home > Europe > Italy
Elevation: 144 feet     Latitude: 41 08N     Longitude: 016 47E

WEATHER
 
SELECT A DAY
Number of Records: 303,664;   Date Range: 7/1/96 - 12/18/14
 
SHARE

PRINT THIS DATA

[ ← Previous Day ]
WEATHER ALMANAC - SEPTEMBER 18, 2013
[ Next Day → ]
[ °C ]   °F
Weather ElementAverageHighLow
Temperature68.4 °F73.4 °F (11:50 am)60.8 °F (6:50 am)
Dewpoint54.7 °F57.2 °F (4:50 pm)51.8 °F (10:20 am)
Humidity62.4 %77 % (4:20 am)47 % (11:50 am)
Barometer29.73 in29.77 in (10:20 am)29.71 in (12:50 am)
Wind Speed8.3 mph13.8 mph (8:50 am)
Weather ElementAverage
Visibility6.2 mi
Wind DirectionSSW (192.7 °)

Weather ElementTotal
Precipitation---
Cooling Degree Days2.1 (Base 65)
Growing Degree Days17.1 (Base 50)
Averaged from 45 records on September 18, 2013
WEATHER CONDITIONS BREAKOUT
WIND DIRECTION BREAKOUT
WEATHER BY HOUR - SEPTEMBER 18, 2013
[ °C ]   °F
Local TimeTemperatureDewpointHumidityBarometerVisibilityWind DirectionWind SpeedGust SpeedPrecipitationEventsConditions
12:50 AM68.0 °F55.4 °F64 %29.71 in6.2 miWNW (300°)11.5 mphScattered Clouds
1:50 AM66.2 °F55.4 °F68 %29.71 in6.2 miNW (310°)11.5 mphScattered Clouds
2:20 AM66.2 °F55.4 °F68 %29.74 in6.2 miNW (320°)9.2 mphScattered Clouds
2:50 AM66.2 °F55.4 °F68 %29.74 in6.2 miWNW (300°)9.2 mphScattered Clouds
3:20 AM66.2 °F55.4 °F68 %29.71 in6.2 miWNW (300°)9.2 mphScattered Clouds
3:50 AM64.4 °F55.4 °F73 %29.71 in6.2 miWNW (290°)10.4 mphScattered Clouds
4:20 AM62.6 °F55.4 °F77 %29.74 in6.2 miWest (260°)5.8 mphScattered Clouds
4:50 AM62.6 °F55.4 °F77 %29.71 in6.2 miWest (280°)8.1 mphScattered Clouds
5:20 AM62.6 °F55.4 °F77 %29.71 in6.2 miWNW (290°)9.2 mphScattered Clouds
5:50 AM62.6 °F53.6 °F72 %29.71 in6.2 miWest (280°)9.2 mphPartly Cloudy
6:20 AM62.6 °F53.6 °F72 %29.71 in6.2 miWest (270°)8.1 mphPartly Cloudy
6:50 AM60.8 °F53.6 °F77 %29.74 in6.2 miWest (270°)6.9 mphPartly Cloudy
7:20 AM60.8 °F53.6 °F77 %29.74 in6.2 miWest (280°)6.9 mphPartly Cloudy
7:50 AM62.6 °F53.6 °F72 %29.74 in6.2 miWest (260°)6.9 mphPartly Cloudy
8:20 AM64.4 °F55.4 °F73 %29.74 in6.2 miWNW (290°)11.5 mphPartly Cloudy
8:50 AM68.0 °F55.4 °F64 %29.74 in6.2 miWNW (300°)13.8 mphScattered Clouds
9:20 AM68.0 °F53.6 °F60 %29.74 in6.2 miNW (310°)12.7 mphPartly Cloudy
9:50 AM69.8 °F53.6 °F56 %29.74 in6.2 miNW (320°)10.4 mphPartly Cloudy
10:20 AM69.8 °F51.8 °F53 %29.77 inNW (320°)9.2 mphClear
10:50 AM71.6 °F53.6 °F53 %29.77 inNorth (350°)6.9 mphClear
11:20 AM71.6 °F53.6 °F53 %29.77 inNorth (360°)9.2 mphClear
11:50 AM73.4 °F51.8 °F47 %29.77 inNorth (10°)8.1 mphClear
12:20 PM73.4 °F55.4 °F53 %29.77 inNNE (20°)8.1 mphClear
12:50 PM73.4 °F55.4 °F53 %29.74 inNNE (30°)8.1 mphClear
1:50 PM73.4 °F51.8 °F47 %29.74 inENE (60°)9.2 mphClear
2:20 PM73.4 °F51.8 °F47 %29.74 inENE (70°)10.4 mphClear
2:50 PM73.4 °F53.6 °F50 %29.74 in6.2 miEast (80°)10.4 mphPartly Cloudy
3:20 PM73.4 °F51.8 °F47 %29.74 in6.2 miEast (80°)10.4 mphPartly Cloudy
3:50 PM73.4 °F51.8 °F47 %29.71 in6.2 miEast (90°)10.4 mphPartly Cloudy
4:20 PM73.4 °F55.4 °F53 %29.71 inEast (90°)11.5 mphClear
4:50 PM73.4 °F57.2 °F57 %29.71 inEast (90°)10.4 mphClear
5:20 PM73.4 °F55.4 °F53 %29.71 inEast (100°)11.5 mphClear
5:50 PM71.6 °F57.2 °F60 %29.71 inESE (110°)10.4 mphClear
6:20 PM71.6 °F57.2 °F60 %29.71 inESE (110°)9.2 mphClear
6:50 PM71.6 °F57.2 °F60 %29.71 inESE (120°)8.1 mphClear
7:20 PM69.8 °F55.4 °F60 %29.71 inSSE (150°)4.6 mphClear
7:50 PM71.6 °F57.2 °F60 %29.71 inSSE (150°)4.6 mphClear
8:20 PM68.0 °F55.4 °F64 %29.71 inVariable2.3 mphClear
8:50 PM68.0 °F55.4 °F64 %29.71 inVariable2.3 mphClear
9:20 PM68.0 °F55.4 °F64 %29.71 inVariable3.5 mphClear
9:50 PM68.0 °F55.4 °F64 %29.74 inVariable3.5 mphClear
10:20 PM66.2 °F55.4 °F68 %29.74 inSW (230°)4.6 mphClear
10:50 PM64.4 °F55.4 °F73 %29.74 inWest (270°)4.6 mphClear
11:20 PM66.2 °F55.4 °F68 %29.74 inWest (280°)6.9 mphClear
11:50 PM66.2 °F55.4 °F68 %29.74 inWest (270°)5.8 mphClear
Hourly data recorded from LIBD, located miles away from Bari, Italy







STORIES FROM OUR PARTNERS